Hourly Weather Voznesenka

Today, 4 July, Saturday

Time Temperature Precipitation Wind Pressure Humidity
00:00 +19°C° 0 mm 1 mps 744 mmHg 95%
01:00 +19°C° 0 mm 1 mps 744 mmHg 96%
02:00 +19°C° 0 mm 1 mps 744 mmHg 96%
03:00 +18°C° 0 mm 1 mps 744 mmHg 96%
04:00 +19°C° 0 mm 1 mps 744 mmHg 96%
05:00 +19°C° 0 mm 1 mps 744 mmHg 96%
06:00 +20°C° 0 mm 1 mps 744 mmHg 96%
07:00 +21°C° 0 mm 1 mps 744 mmHg 89%
08:00 +23°C° 0 mm 1 mps 744 mmHg 82%
09:00 +25°C° 0 mm 2 mps 744 mmHg 75%
10:00 +26°C° 0.1 mm 2 mps 744 mmHg 72%
11:00 +26°C° 0.1 mm 2 mps 744 mmHg 68%
12:00 +27°C° 0.1 mm 2 mps 744 mmHg 64%
13:00 +27°C° 1.2 mm 2 mps 744 mmHg 69%
14:00 +27°C° 1.2 mm 2 mps 744 mmHg 74%
15:00 +26°C° 1.2 mm 3 mps 744 mmHg 79%
16:00 +26°C° 0.6 mm 2 mps 744 mmHg 80%
17:00 +26°C° 0.6 mm 2 mps 744 mmHg 81%
18:00 +25°C° 0.6 mm 2 mps 744 mmHg 82%
19:00 +24°C° 0 mm 2 mps 744 mmHg 84%
20:00 +23°C° 0 mm 1 mps 744 mmHg 87%
21:00 +21°C° 0 mm 1 mps 744 mmHg 90%
22:00 +21°C° 0 mm 1 mps 744 mmHg 91%
23:00 +20°C° 0 mm 1 mps 745 mmHg 92%

Tomorrow, 5 July, Sunday

Time Temperature Precipitation Wind Pressure Humidity
00:00 +19°C° 0 mm 1 mps 745 mmHg 93%
01:00 +18°C° 0 mm 1 mps 745 mmHg 94%
02:00 +18°C° 0 mm 1 mps 744 mmHg 94%
03:00 +18°C° 0 mm 1 mps 744 mmHg 95%
04:00 +18°C° 0 mm 1 mps 745 mmHg 93%
05:00 +19°C° 0 mm 1 mps 745 mmHg 91%
06:00 +20°C° 0 mm 1 mps 745 mmHg 89%
07:00 +22°C° 0.1 mm 1 mps 745 mmHg 82%
08:00 +23°C° 0.1 mm 1 mps 745 mmHg 76%
09:00 +25°C° 0.1 mm 1 mps 745 mmHg 69%
10:00 +26°C° 0.1 mm 1 mps 745 mmHg 64%
11:00 +27°C° 0.1 mm 1 mps 745 mmHg 59%
12:00 +28°C° 0.1 mm 1 mps 745 mmHg 53%
13:00 +28°C° 0.1 mm 1 mps 744 mmHg 54%
14:00 +28°C° 0.1 mm 1 mps 744 mmHg 54%
15:00 +28°C° 0.1 mm 1 mps 744 mmHg 54%
16:00 +27°C° 0.4 mm 1 mps 744 mmHg 63%
17:00 +26°C° 0.4 mm 1 mps 744 mmHg 72%
18:00 +25°C° 0.4 mm 1 mps 744 mmHg 82%
19:00 +23°C° 0.1 mm 1 mps 744 mmHg 85%
20:00 +22°C° 0.1 mm 1 mps 744 mmHg 88%
21:00 +20°C° 0.1 mm 1 mps 744 mmHg 91%
22:00 +18°C° 0 mm 0 mps 743 mmHg 92%
23:00 +17°C° 0 mm 0 mps 743 mmHg 93%

Day after tomorrow, 6 July, Monday

Time Temperature Precipitation Wind Pressure Humidity
00:00 +16°C° 0 mm 0 mps 743 mmHg 94%
01:00 +16°C° 0.1 mm 0 mps 743 mmHg 94%
02:00 +16°C° 0.1 mm 0 mps 743 mmHg 95%
03:00 +15°C° 0.1 mm 0 mps 743 mmHg 95%
04:00 +16°C° 0.1 mm 0 mps 743 mmHg 95%
05:00 +19°C° 0.1 mm 1 mps 743 mmHg 96%
06:00 +19°C° 0.1 mm 1 mps 743 mmHg 96%
07:00 +20°C° 0.4 mm 1 mps 743 mmHg 93%
08:00 +22°C° 0.4 mm 1 mps 743 mmHg 90%
09:00 +21°C° 0.4 mm 0 mps 743 mmHg 87%
10:00 +22°C° 1.1 mm 0 mps 743 mmHg 82%
11:00 +23°C° 1.1 mm 0 mps 743 mmHg 77%
12:00 +24°C° 1.1 mm 0 mps 743 mmHg 73%
13:00 +26°C° 1.1 mm 1 mps 743 mmHg 76%
14:00 +25°C° 1.1 mm 1 mps 743 mmHg 78%
15:00 +25°C° 1.1 mm 1 mps 743 mmHg 81%
16:00 +25°C° 1.1 mm 1 mps 743 mmHg 81%
17:00 +23°C° 1.1 mm 0 mps 743 mmHg 82%
18:00 +23°C° 1.1 mm 0 mps 743 mmHg 82%
19:00 +21°C° 0.3 mm 0 mps 743 mmHg 85%
20:00 +20°C° 0.3 mm 0 mps 743 mmHg 88%
21:00 +18°C° 0.3 mm 0 mps 743 mmHg 91%
22:00 +18°C° 0.7 mm 0 mps 743 mmHg 92%
23:00 +19°C° 0.7 mm 1 mps 743 mmHg 94%

7 July, Tuesday

Time Temperature Precipitation Wind Pressure Humidity
00:00 +19°C° 0.7 mm 1 mps 743 mmHg 95%
01:00 +19°C° 0.4 mm 1 mps 743 mmHg 95%
02:00 +19°C° 0.4 mm 1 mps 743 mmHg 96%
03:00 +19°C° 0.4 mm 1 mps 743 mmHg 96%
04:00 +18°C° 0.3 mm 1 mps 743 mmHg 97%
05:00 +17°C° 0.3 mm 2 mps 743 mmHg 97%
06:00 +17°C° 0.3 mm 2 mps 743 mmHg 98%
07:00 +18°C° 0.5 mm 2 mps 744 mmHg 97%
08:00 +18°C° 0.5 mm 2 mps 744 mmHg 97%
09:00 +18°C° 0.5 mm 2 mps 744 mmHg 97%
10:00 +19°C° 0.1 mm 2 mps 745 mmHg 92%
11:00 +20°C° 0.1 mm 2 mps 745 mmHg 87%
12:00 +21°C° 0.1 mm 2 mps 745 mmHg 81%
13:00 +22°C° 0 mm 3 mps 745 mmHg 73%
14:00 +25°C° 0 mm 3 mps 745 mmHg 65%
15:00 +26°C° 0 mm 3 mps 745 mmHg 57%
16:00 +26°C° 0.1 mm 3 mps 745 mmHg 60%
17:00 +25°C° 0.1 mm 3 mps 746 mmHg 63%
18:00 +25°C° 0.1 mm 2 mps 746 mmHg 67%
19:00 +23°C° 0 mm 2 mps 746 mmHg 70%
20:00 +21°C° 0 mm 2 mps 747 mmHg 73%
21:00 +19°C° 0 mm 2 mps 747 mmHg 77%
22:00 +18°C° 0 mm 2 mps 747 mmHg 77%
23:00 +17°C° 0 mm 2 mps 747 mmHg 78%

8 July, Wednesday

Time Temperature Precipitation Wind Pressure Humidity
00:00 +16°C° 0 mm 2 mps 747 mmHg 79%
01:00 +16°C° 0 mm 1 mps 748 mmHg 81%
02:00 +15°C° 0 mm 1 mps 748 mmHg 83%
03:00 +15°C° 0 mm 1 mps 748 mmHg 85%
04:00 +16°C° 0 mm 1 mps 749 mmHg 83%
05:00 +18°C° 0 mm 1 mps 749 mmHg 82%
06:00 +19°C° 0 mm 1 mps 749 mmHg 80%
07:00 +20°C° 0 mm 1 mps 749 mmHg 76%
08:00 +21°C° 0 mm 1 mps 750 mmHg 73%
09:00 +22°C° 0 mm 1 mps 750 mmHg 69%
10:00 +24°C° 0 mm 1 mps 750 mmHg 62%
11:00 +26°C° 0 mm 2 mps 750 mmHg 54%
12:00 +27°C° 0 mm 2 mps 750 mmHg 46%
13:00 +27°C° 0 mm 2 mps 750 mmHg 47%
14:00 +27°C° 0 mm 2 mps 750 mmHg 47%
15:00 +27°C° 0 mm 2 mps 750 mmHg 48%
16:00 +27°C° 0 mm 2 mps 750 mmHg 51%
17:00 +27°C° 0 mm 2 mps 750 mmHg 55%
18:00 +27°C° 0 mm 2 mps 750 mmHg 59%
19:00 +25°C° 0 mm 1 mps 750 mmHg 65%
20:00 +23°C° 0 mm 1 mps 750 mmHg 71%
21:00 +21°C° 0 mm 1 mps 750 mmHg 77%
22:00 +20°C° 0 mm 1 mps 750 mmHg 80%
23:00 +20°C° 0 mm 1 mps 750 mmHg 83%

9 July, Thursday

Time Temperature Precipitation Wind Pressure Humidity
00:00 +19°C° 0 mm 1 mps 750 mmHg 85%
01:00 +19°C° 0 mm 1 mps 750 mmHg 87%
02:00 +18°C° 0 mm 1 mps 750 mmHg 88%
03:00 +18°C° 0 mm 1 mps 750 mmHg 89%
04:00 +19°C° 0 mm 1 mps 750 mmHg 87%
05:00 +19°C° 0 mm 1 mps 750 mmHg 86%
06:00 +20°C° 0 mm 1 mps 750 mmHg 84%
07:00 +22°C° 0 mm 1 mps 750 mmHg 78%
08:00 +24°C° 0 mm 1 mps 749 mmHg 72%
09:00 +26°C° 0 mm 1 mps 749 mmHg 65%
10:00 +27°C° 0 mm 1 mps 749 mmHg 61%
11:00 +28°C° 0 mm 1 mps 749 mmHg 56%
12:00 +29°C° 0 mm 2 mps 748 mmHg 51%
13:00 +29°C° 0 mm 1 mps 748 mmHg 53%
14:00 +29°C° 0 mm 1 mps 748 mmHg 54%
15:00 +29°C° 0 mm 1 mps 747 mmHg 56%
16:00 +28°C° 0.4 mm 1 mps 747 mmHg 64%
17:00 +26°C° 0.4 mm 1 mps 747 mmHg 73%
18:00 +25°C° 0.4 mm 1 mps 746 mmHg 82%
19:00 +24°C° 0.5 mm 1 mps 746 mmHg 84%
20:00 +23°C° 0.5 mm 1 mps 746 mmHg 87%
21:00 +22°C° 0.5 mm 1 mps 746 mmHg 89%
22:00 +22°C° 0 mm 1 mps 746 mmHg 90%
23:00 +19°C° 0 mm 0 mps 746 mmHg 91%
Show more